This demonstration page uses our WeatherBlox Daily Observations layout. Learn more.

Left ArrowRight Arrow

Hourly Observations for June 4, 2020

Temp ( °F °C ) Dew Point ( °F °C ) Humidity (%) Winds ( mph kmh ) Pressure ( in mb ) Visibility ( mi km ) Precip ( " mm )
12:53 am 00:53 Clear 55 12.8 35 1.7 47 47 ENE 7 11 29.82 1010 10 16 N/A
1:53 am 01:53 Clear 55 12.8 36 2.2 49 49 E 10 17 29.83 1010 10 16 N/A
2:53 am 02:53 Clear 55 12.8 37 2.8 51 51 ESE 7 11 29.83 1010 10 16 N/A
3:53 am 03:53 Mostly Clear 53 11.7 35 1.7 51 51 NE 8 13 29.84 1011 10 16 N/A
4:53 am 04:53 Cloudy 53 11.7 35 1.7 51 51 E 8 13 29.85 1011 10 16 N/A
5:53 am 05:53 Cloudy 53 11.7 34 1.1 48 48 NE 9 15 29.85 1011 10 16 N/A
6:53 am 06:53 Mostly Cloudy 53 11.7 35 1.7 51 51 E 10 17 29.85 1011 10 16 N/A
7:53 am 07:53 Mostly Cloudy 57 13.9 34 1.1 42 42 E 13 20 29.85 1011 10 16 N/A
8:53 am 08:53 Cloudy 59 15 32 undefined 36 36 ENE 9 15 29.88 1012 10 16 N/A
9:53 am 09:53 Cloudy 61 16.1 32 undefined 34 34 E 14 22 29.87 1012 10 16 N/A
10:53 am 10:53 Mostly Sunny 64 17.8 33 0.6 32 32 ENE 7 11 29.87 1012 10 16 N/A
11:53 am 11:53 Sunny 66 18.9 31 -0.6 27 27 E 6 9 29.86 1011 10 16 N/A
12:53 pm 12:53 Mostly Sunny 67 19.4 31 -0.6 26 26 VRB 3 6 29.85 1011 10 16 N/A
1:53 pm 13:53 Partly Cloudy 68 20 31 -0.6 25 25 W 3 6 29.85 1011 10 16 N/A
2:53 pm 14:53 Mostly Cloudy 69 20.6 31 -0.6 24 24 VRB 5 7 29.85 1011 10 16 N/A
3:53 pm 15:53 Partly Cloudy 69 20.6 32 undefined 25 25 NW 9 15 29.85 1011 10 16 N/A
4:53 pm 16:53 Partly Cloudy 70 21.1 32 undefined 25 25 NW 13 20 29.85 1011 10 16 N/A
5:53 pm 17:53 Mostly Cloudy 69 20.6 32 undefined 25 25 VRB 3 6 29.85 1011 10 16 N/A
6:53 pm 18:53 Mostly Cloudy 67 19.4 34 1.1 30 30 WNW 13 20 29.87 1012 10 16 N/A
7:53 pm 19:53 Sunny 67 19.4 36 2.2 32 32 W 3 6 29.87 1011 10 16 N/A
8:53 pm 20:53 Sunny 65 18.3 33 0.6 31 31 N N/A 29.87 1011 10 16 N/A
9:53 pm 21:53 Mostly Clear 57 13.9 42 5.6 58 58 SSE 3 6 29.89 1012 10 16 N/A
10:53 pm 22:53 Clear 53 11.7 36 2.2 52 52 S 5 7 29.91 1013 10 16 N/A
11:53 pm 23:53 Mostly Cloudy 51 10.6 38 3.3 61 61 N N/A 29.92 1013 10 16 N/A

Powered by AerisWeather